Radiation Dose at Monitoring Post of Fukushima Daini Nuclear Power Station
Date,Time,MP-1(microSv/h),MP-2(microSv/h),MP-3(microSv/h),MP-4(microSv/h),MP-5(microSv/h),MP-6(microSv/h),MP-7(microSv/h),Wind Direction,Wind Velocity(m/s),Rain
2023/11/24,00:00,0.148,0.133,0.213,0.201,0.208,0.118,0.077,west-southwest,5.9,No
2023/11/24,00:10,0.148,0.134,0.211,0.201,0.208,0.120,0.077,southwest,4.0,No
2023/11/24,00:20,0.148,0.133,0.212,0.200,0.208,0.119,0.077,south-southwest,3.3,No
2023/11/24,00:30,0.148,0.133,0.212,0.201,0.209,0.120,0.078,south-southwest,3.1,No
2023/11/24,00:40,0.147,0.134,0.211,0.200,0.208,0.119,0.078,south-southwest,2.7,No
2023/11/24,00:50,0.147,0.134,0.211,0.200,0.208,0.119,0.077,south,2.5,No
2023/11/24,01:00,0.146,0.133,0.211,0.201,0.209,0.119,0.077,south,2.7,No
2023/11/24,01:10,0.148,0.134,0.211,0.201,0.208,0.120,0.077,southwest,2.3,No
2023/11/24,01:20,0.147,0.134,0.210,0.200,0.209,0.119,0.077,south-southwest,1.6,No
2023/11/24,01:30,0.148,0.135,0.212,0.201,0.209,0.118,0.077,west,1.1,No
2023/11/24,01:40,0.148,0.134,0.211,0.200,0.208,0.118,0.077,west-southwest,1.9,No
2023/11/24,01:50,0.148,0.133,0.210,0.200,0.208,0.119,0.077,west-southwest,3.5,No
2023/11/24,02:00,0.148,0.134,0.211,0.201,0.207,0.119,0.077,west-northwest,1.7,No
2023/11/24,02:10,0.147,0.134,0.211,0.201,0.209,0.119,0.077,west-northwest,1.5,No
2023/11/24,02:20,0.147,0.134,0.212,0.200,0.208,0.120,0.077,west,2.3,No
2023/11/24,02:30,0.147,0.134,0.211,0.200,0.207,0.119,0.077,west,2.0,No
2023/11/24,02:40,0.149,0.135,0.213,0.200,0.208,0.120,0.078,south-southwest,0.7,No
2023/11/24,02:50,0.147,0.133,0.212,0.200,0.208,0.119,0.077,south,0.6,No
2023/11/24,03:00,0.148,0.133,0.212,0.201,0.209,0.120,0.077,west,1.6,No
2023/11/24,03:10,0.148,0.135,0.210,0.201,0.209,0.120,0.077,west-northwest,2.6,No
2023/11/24,03:20,0.148,0.134,0.212,0.200,0.207,0.119,0.077,west,2.0,No
2023/11/24,03:30,0.147,0.134,0.211,0.201,0.209,0.119,0.077,-,CALM,No
2023/11/24,03:40,0.148,0.133,0.212,0.200,0.207,0.120,0.077,west-southwest,1.2,No
2023/11/24,03:50,0.147,0.134,0.211,0.200,0.209,0.119,0.077,northwest,1.3,No
2023/11/24,04:00,0.148,0.134,0.212,0.201,0.207,0.119,0.078,northwest,1.1,No
2023/11/24,04:10,0.149,0.134,0.212,0.200,0.210,0.119,0.076,northwest,1.2,No
2023/11/24,04:20,0.147,0.134,0.211,0.200,0.209,0.119,0.077,-,CALM,No
2023/11/24,04:30,0.148,0.133,0.212,0.201,0.207,0.119,0.078,-,CALM,No
2023/11/24,04:40,0.147,0.135,0.213,0.199,0.210,0.119,0.077,-,CALM,No
2023/11/24,04:50,0.147,0.134,0.211,0.200,0.210,0.119,0.078,southwest,2.2,No
2023/11/24,05:00,0.148,0.134,0.211,0.202,0.208,0.120,0.077,southwest,2.8,No
2023/11/24,05:10,0.148,0.134,0.212,0.200,0.208,0.119,0.078,south-southwest,2.7,No
2023/11/24,05:20,0.148,0.134,0.211,0.200,0.207,0.118,0.078,south,2.4,No
2023/11/24,05:30,0.149,0.134,0.212,0.201,0.210,0.120,0.077,southeast,2.6,No
2023/11/24,05:40,0.148,0.134,0.211,0.201,0.208,0.118,0.078,southeast,2.7,No
2023/11/24,05:50,0.148,0.133,0.212,0.201,0.209,0.120,0.078,southeast,1.3,No
2023/11/24,06:00,0.149,0.134,0.212,0.201,0.208,0.120,0.078,southwest,2.3,No
2023/11/24,06:10,0.148,0.134,0.213,0.200,0.208,0.119,0.078,west,0.8,No
2023/11/24,06:20,0.148,0.135,0.211,0.201,0.210,0.119,0.077,northeast,0.8,No
2023/11/24,06:30,0.148,0.134,0.212,0.201,0.209,0.120,0.077,south,0.6,No
2023/11/24,06:40,0.148,0.135,0.212,0.201,0.208,0.120,0.077,east-southeast,1.9,No
2023/11/24,06:50,0.148,0.134,0.212,0.201,0.210,0.119,0.078,northeast,2.4,No
2023/11/24,07:00,0.148,0.134,0.213,0.202,0.209,0.119,0.077,east-northeast,3.5,No
2023/11/24,07:10,0.148,0.134,0.213,0.201,0.209,0.119,0.078,north-northwest,1.3,No
2023/11/24,07:20,0.148,0.135,0.211,0.200,0.208,0.120,0.077,west,0.7,No
2023/11/24,07:30,0.147,0.134,0.212,0.202,0.207,0.119,0.077,west,2.0,No
2023/11/24,07:40,0.147,0.133,0.211,0.200,0.210,0.119,0.077,west,2.0,No
2023/11/24,07:50,0.148,0.133,0.212,0.201,0.207,0.119,0.077,west-northwest,1.8,No
2023/11/24,08:00,0.148,0.133,0.211,0.200,0.210,0.119,0.078,southeast,1.3,No
2023/11/24,08:10,0.147,0.133,0.211,0.200,0.208,0.119,0.077,west-northwest,0.9,No
2023/11/24,08:20,0.149,0.135,0.210,0.199,0.209,0.118,0.077,west-southwest,2.7,No
2023/11/24,08:30,0.147,0.133,0.211,0.201,0.208,0.119,0.078,west-northwest,2.4,No
2023/11/24,08:40,0.148,0.134,0.212,0.199,0.208,0.119,0.077,south-southwest,1.8,No
2023/11/24,08:50,0.147,0.134,0.210,0.202,0.208,0.119,0.077,southeast,3.8,No
2023/11/24,09:00,0.147,0.133,0.212,0.199,0.209,0.118,0.077,south,2.2,No
2023/11/24,09:10,0.148,0.133,0.211,0.200,0.207,0.119,0.077,south,2.1,No
2023/11/24,09:20,0.148,0.134,0.211,0.200,0.210,0.118,0.078,south-southeast,2.3,No
2023/11/24,09:30,0.147,0.133,0.212,0.199,0.207,0.120,0.078,-,CALM,No
2023/11/24,09:40,0.147,0.133,0.211,0.201,0.210,0.118,0.077,north-northwest,1.2,No
2023/11/24,09:50,0.148,0.133,0.211,0.201,0.207,0.120,0.077,west-northwest,4.2,No
2023/11/24,10:00,0.147,0.133,0.210,0.199,0.206,0.120,0.077,north-northwest,2.1,No
2023/11/24,10:10,0.147,0.132,0.212,0.201,0.209,0.118,0.077,west,9.2,No
2023/11/24,10:20,0.147,0.133,0.212,0.200,0.207,0.119,0.076,west-northwest,5.9,No
2023/11/24,10:30,0.147,0.133,0.209,0.199,0.205,0.119,0.078,west-northwest,8.7,No
2023/11/24,10:40,0.147,0.133,0.211,0.203,0.208,0.119,0.077,west-northwest,9.3,No
2023/11/24,10:50,0.149,0.133,0.210,0.202,0.207,0.119,0.077,west-northwest,12.0,No
2023/11/24,11:00,0.145,0.133,0.211,0.199,0.208,0.119,0.077,west-northwest,9.8,No
2023/11/24,11:10,0.148,0.134,0.212,0.201,0.210,0.119,0.077,west-northwest,11.1,No
2023/11/24,11:20,0.148,0.134,0.210,0.199,0.208,0.119,0.077,west-northwest,12.0,No
2023/11/24,11:30,0.147,0.133,0.212,0.202,0.206,0.119,0.078,west-northwest,13.4,No
2023/11/24,11:40,0.149,0.135,0.212,0.202,0.209,0.119,0.078,west-northwest,13.1,No
2023/11/24,11:50,0.147,0.133,0.212,0.201,0.208,0.119,0.077,west,14.6,No
2023/11/24,12:00,0.148,0.134,0.212,0.202,0.208,0.119,0.077,west-northwest,12.2,No
2023/11/24,12:10,0.148,0.133,0.211,0.201,0.209,0.118,0.077,west-northwest,13.7,No
2023/11/24,12:20,0.147,0.133,0.211,0.201,0.207,0.119,0.076,west-northwest,14.5,No
2023/11/24,12:30,0.149,0.134,0.212,0.202,0.208,0.119,0.077,west-northwest,13.4,No
2023/11/24,12:40,0.148,0.134,0.211,0.199,0.209,0.119,0.078,west-northwest,14.2,No
2023/11/24,12:50,0.147,0.134,0.214,0.202,0.206,0.120,0.077,west-northwest,13.4,No
2023/11/24,13:00,0.148,0.133,0.212,0.200,0.210,0.120,0.077,west-northwest,11.2,No
2023/11/24,13:10,0.147,0.135,0.214,0.201,0.209,0.119,0.077,west-northwest,9.5,No
2023/11/24,13:20,0.149,0.134,0.212,0.203,0.211,0.120,0.077,west-northwest,9.2,No
2023/11/24,13:30,0.148,0.135,0.213,0.201,0.208,0.120,0.078,west-northwest,10.7,No
2023/11/24,13:40,0.149,0.134,0.212,0.201,0.210,0.119,-,west-northwest,14.0,No
2023/11/24,13:50,0.149,0.134,0.213,0.202,0.208,0.120,-,west-northwest,12.6,No
2023/11/24,14:00,0.149,0.134,0.213,0.200,0.208,0.120,-,west-northwest,12.6,No
2023/11/24,14:10,0.150,0.134,0.214,0.203,0.209,0.119,-,west-northwest,13.7,No
2023/11/24,14:20,0.150,0.134,0.212,0.201,0.207,0.121,-,west-northwest,13.1,No
2023/11/24,14:30,0.150,0.134,0.213,0.203,0.210,0.119,-,west-northwest,13.9,No
2023/11/24,14:40,0.149,0.135,0.212,0.203,0.208,0.120,-,west-northwest,11.2,No
2023/11/24,14:50,0.148,0.134,0.213,0.203,0.211,0.120,-,west-northwest,13.7,No
2023/11/24,15:00,0.149,0.136,0.213,0.201,0.209,0.120,0.077,west-northwest,13.9,No
2023/11/24,15:10,0.148,0.134,0.214,0.203,0.210,0.120,0.077,west-northwest,12.2,No
2023/11/24,15:20,0.150,0.135,0.215,0.203,0.209,0.119,0.077,west-northwest,16.0,No
2023/11/24,15:30,0.148,0.134,0.213,0.203,0.210,0.120,0.078,west-northwest,14.7,No
2023/11/24,15:40,0.149,0.135,0.213,0.201,0.210,0.120,0.077,west-northwest,13.3,No
2023/11/24,15:50,0.148,0.135,0.213,0.202,0.207,0.119,0.077,west-northwest,14.8,No
2023/11/24,16:00,0.148,0.134,0.213,0.203,0.209,0.120,0.077,west-northwest,15.6,No
2023/11/24,16:10,0.149,0.135,0.214,0.202,0.209,0.120,0.077,northwest,14.0,No
2023/11/24,16:20,0.149,0.135,0.214,0.203,0.209,0.119,0.077,west-northwest,15.3,No
2023/11/24,16:30,0.149,0.135,0.213,0.203,0.210,0.120,0.076,west-northwest,15.1,No
2023/11/24,16:40,0.149,0.135,0.214,0.202,0.210,0.120,0.077,west-northwest,13.3,No
2023/11/24,16:50,0.149,0.135,0.214,0.202,0.211,0.120,0.078,west-northwest,14.2,No
2023/11/24,17:00,0.149,0.135,0.213,0.203,0.209,0.120,0.078,west-northwest,17.3,No
2023/11/24,17:10,0.150,0.134,0.214,0.202,0.209,0.121,0.077,west-northwest,15.6,No
2023/11/24,17:20,0.149,0.135,0.214,0.203,0.210,0.120,0.077,west-northwest,16.5,No
2023/11/24,17:30,0.149,0.135,0.214,0.204,0.209,0.120,0.077,west-northwest,14.4,No
2023/11/24,17:40,0.150,0.134,0.214,0.203,0.210,0.120,0.078,west-northwest,14.8,No
2023/11/24,17:50,0.149,0.135,0.215,0.202,0.210,0.119,0.077,west-northwest,15.4,No
2023/11/24,18:00,0.149,0.135,0.213,0.204,0.208,0.121,0.076,west-northwest,15.1,No
2023/11/24,18:10,0.149,0.135,0.213,0.202,0.209,0.120,0.078,west-northwest,15.0,No
2023/11/24,18:20,0.149,0.135,0.215,0.202,0.209,0.120,0.077,west-northwest,15.6,No
2023/11/24,18:30,0.150,0.134,0.214,0.203,0.209,0.120,0.078,west,18.6,No
2023/11/24,18:40,0.150,0.135,0.214,0.203,0.209,0.120,0.078,west-northwest,14.3,No
2023/11/24,18:50,0.149,0.135,0.214,0.203,0.210,0.121,0.077,west-northwest,15.9,No
2023/11/24,19:00,0.149,0.135,0.214,0.203,0.209,0.120,0.077,west-northwest,17.8,No
2023/11/24,19:10,0.149,0.135,0.214,0.203,0.210,0.121,0.077,west,16.7,No
2023/11/24,19:20,0.150,0.136,0.214,0.203,0.210,0.121,0.078,west,14.4,No
2023/11/24,19:30,0.149,0.135,0.215,0.203,0.210,0.120,0.078,west,15.8,No
2023/11/24,19:40,0.149,0.135,0.215,0.203,0.210,0.121,0.078,west-northwest,13.4,No
2023/11/24,19:50,0.149,0.136,0.214,0.202,0.210,0.121,0.077,west,9.3,No
2023/11/24,20:00,0.150,0.135,0.214,0.203,0.210,0.120,0.077,west-northwest,9.8,No
2023/11/24,20:10,0.151,0.135,0.214,0.202,0.210,0.121,0.078,northwest,6.1,No
2023/11/24,20:20,0.151,0.136,0.214,0.203,0.209,0.120,0.078,northwest,6.9,No
2023/11/24,20:30,0.149,0.135,0.213,0.203,0.209,0.122,0.077,north-northwest,9.2,No
2023/11/24,20:40,0.150,0.135,0.214,0.203,0.210,0.121,0.078,north-northwest,6.5,No
2023/11/24,20:50,0.149,0.136,0.214,0.203,0.210,0.120,0.077,northwest,3.8,No
2023/11/24,21:00,0.148,0.135,0.214,0.202,0.209,0.120,0.077,west-northwest,6.5,No
2023/11/24,21:10,0.149,0.136,0.215,0.203,0.210,0.120,0.077,west-northwest,6.3,No
2023/11/24,21:20,0.149,0.136,0.214,0.203,0.210,0.120,0.077,west,4.3,No
2023/11/24,21:30,0.148,0.135,0.215,0.202,0.209,0.121,0.077,northwest,6.3,No
2023/11/24,21:40,0.150,0.135,0.214,0.203,0.209,0.121,0.077,west-northwest,9.5,No
2023/11/24,21:50,0.150,0.135,0.214,0.203,0.211,0.121,0.077,west-northwest,12.5,No
2023/11/24,22:00,0.150,0.135,0.214,0.203,0.210,0.120,0.078,west-northwest,12.3,No
2023/11/24,22:10,0.150,0.134,0.214,0.203,0.210,0.121,0.077,west-northwest,6.8,No
2023/11/24,22:20,0.149,0.135,0.214,0.203,0.210,0.121,0.078,northwest,6.0,No
2023/11/24,22:30,0.149,0.134,0.214,0.203,0.209,0.120,0.077,northwest,11.7,No
2023/11/24,22:40,0.148,0.135,0.214,0.203,0.209,0.121,0.077,west-northwest,17.4,No
2023/11/24,22:50,0.149,0.135,0.215,0.204,0.210,0.121,0.078,west-northwest,17.3,No
2023/11/24,23:00,0.149,0.134,0.214,0.203,0.210,0.120,0.077,west-northwest,15.1,No
2023/11/24,23:10,0.149,0.136,0.214,0.203,0.210,0.120,0.077,west-northwest,11.5,No
2023/11/24,23:20,0.149,0.135,0.213,0.204,0.210,0.120,0.077,west-northwest,9.5,No
2023/11/24,23:30,0.150,0.135,0.213,0.203,0.210,0.119,0.077,west-northwest,9.0,No
2023/11/24,23:40,0.150,0.135,0.215,0.203,0.210,0.120,0.077,west-northwest,7.4,No
2023/11/24,23:50,0.150,0.136,0.214,0.203,0.208,0.119,0.078,west-northwest,5.0,No
